RH
83 83 83 83 84 84 83 83 82 82 81 81 80 80 81 82 82 82 81 81 81 80 80 80 80 80 79 79 78 78 78 78 76 74 71 68 63 55 43 22 9 4 4 4 4 4 3 4 6 11 18 26 34 41 47 55 63 71 78 83 86 87 86 86 85 84 83 85 86 87 88 87 87 86 86 86 86 86 86 86 86 86 85 84 84 83 83 83 83 84 84 84 84 83 83 83 83 83 83 83 83 83 83
84 83 83 83 83 83 83 83 83 83 82 82 80 78 78 80 81 81 81 80 80 80 80 80 79 79 79 78 76 76 75 76 76 74 72 68 63 57 48 27 12 4 4 5 4 4 4 3 4 6 10 18 26 34 41 49 57 65 74 81 85 88 88 88 87 86 84 84 86 87 88 87 87 87 86 86 87 87 87 87 87 87 87 86 85 84 83 83 83 84 84 84 84 83 83 83 83 83 83 83 83 83 82
84 84 84 84 84 84 84 83 83 83 83 83 81 78 76 77 78 79 80 80 80 79 79 78 78 78 77 76 75 74 73 73 74 74 73 68 63 56 47 29 14 4 4 4 5 4 4 4 4 4 7 13 20 29 37 44 52 61 71 79 84 87 88 88 88 87 86 86 86 87 87 87 87 86 86 86 87 87 88 88 88 87 87 87 86 85 84 83 83 83 84 83 83 83 83 83 83 83 83 83 83 82 82
83 84 84 84 84 84 84 84 83 83 84 83 81 79 78 76 76 76 78 78 78 78 78 78 77 76 76 75 75 73 72 68 68 70 73 69 63 56 46 29 14 5 3 4 5 5 4 4 4 4 5 10 17 26 35 42 51 61 72 80 84 86 87 88 88 88 87 87 87 87 87 87 86 86 86 86 86 86 88 88 88 87 87 87 86 86 85 84 84 84 83 83 83 83 83 83 83 83 83 83 83 82 82
83 84 84 84 84 84 84 84 83 83 84 83 82 81 79 76 75 75 75 76 77 77 77 77 76 76 75 75 74 73 72 71 71 72 73 71 66 58 47 30 17 7 3 4 5 5 4 4 4 4 4 8 14 24 34 43 51 61 72 80 85 87 86 87 88 87 88 87 87 87 87 87 86 85 85 85 85 86 87 87 87 87 87 86 86 86 86 84 84 84 84 83 83 83 83 83 83 83 83 83 83 83 82
83 83 83 83 84 84 83 83 83 83 83 83 82 81 79 76 74 73 73 75 76 76 76 75 75 74 74 74 73 73 72 71 70 70 71 71 67 60 48 35 22 11 4 4 5 5 5 4 4 4 4 6 11 20 32 42 49 57 67 76 83 87 86 86 87 87 86 87 87 88 87 87 86 86 85 84 84 85 86 87 87 86 86 86 85 85 85 85 84 84 84 84 83 83 83 83 83 83 83 83 83 83 83
83 83 83 83 83 83 83 83 82 82 82 82 82 81 79 76 75 73 71 72 72 73 73 72 72 72 72 72 72 71 71 69 68 68 69 69 67 61 50 39 26 15 6 5 5 5 5 5 5 4 4 5 8 16 26 36 45 52 60 71 82 88 85 84 86 87 86 86 86 87 87 87 87 86 85 84 83 84 85 86 86 86 85 85 85 84 85 85 84 84 84 84 84 83 83 83 83 83 83 83 83 83 83
83 83 83 82 83 83 83 82 82 82 81 82 82 81 79 77 75 73 71 69 68 68 69 69 69 69 70 70 70 70 69 67 66 66 66 66 63 58 51 41 29 17 8 5 5 5 5 5 5 5 5 4 7 11 20 30 40 49 58 70 81 87 86 85 85 86 87 86 86 86 87 87 87 86 85 84 83 83 84 85 86 86 85 84 84 83 84 84 84 84 84 84 84 84 83 83 83 83 83 83 83 82 82
83 82 82 82 82 82 82 81 81 81 82 82 81 80 78 76 75 73 70 68 66 65 65 65 65 66 67 68 68 68 67 65 64 64 64 63 60 54 48 38 28 19 10 6 5 5 5 5 5 5 5 5 5 8 14 23 33 44 56 69 80 87 88 87 86 86 87 86 86 86 86 86 86 86 86 84 83 83 83 84 85 85 85 84 83 83 83 83 84 83 83 84 84 84 83 83 83 83 82 82 83 82 82
82 82 82 82 81 81 80 80 80 80 81 81 80 79 78 76 75 73 72 69 65 62 61 61 61 62 63 66 67 67 66 64 63 62 62 61 57 50 43 34 26 18 11 7 5 5 5 5 5 5 5 5 5 6 9 16 26 37 51 69 81 87 88 88 87 87 87 86 86 86 86 86 86 86 86 85 84 83 83 83 84 84 85 84 83 83 83 83 83 83 83 83 83 84 84 83 83 83 82 82 82 82 82
82 82 81 81 81 80 79 79 79 79 79 79 79 78 77 75 75 74 72 70 66 62 59 58 57 57 60 63 65 65 65 64 62 62 61 59 54 46 37 28 21 15 9 6 5 5 5 5 5 4 4 5 5 5 6 12 19 29 42 65 78 85 87 88 87 87 86 87 87 87 86 85 85 85 86 85 83 83 83 83 83 84 84 84 83 83 82 83 83 83 83 83 83 83 83 83 83 83 83 82 82 82 82
81 81 81 80 80 79 79 79 78 78 78 77 77 76 76 75 75 74 71 71 67 63 59 54 50 49 54 60 63 64 64 63 62 61 60 58 52 43 32 23 16 11 7 5 5 5 5 5 5 4 4 4 5 5 5 8 14 22 33 58 74 82 83 86 87 86 86 87 87 87 86 85 84 83 84 84 83 83 83 83 83 83 84 84 83 83 82 83 83 83 82 82 83 83 83 83 83 83 83 83 82 82 82
80 80 80 80 79 78 78 78 78 77 77 76 75 75 75 74 74 74 72 72 69 65 60 54 46 42 46 56 60 62 62 61 61 60 60 57 51 42 30 20 13 8 5 5 4 4 5 5 4 4 4 4 4 5 5 6 10 18 30 55 71 79 81 84 86 86 86 85 86 87 87 86 84 83 83 83 83 83 82 83 83 83 83 83 83 83 82 83 83 83 83 82 82 83 83 83 83 83 83 83 82 82 82
80 79 79 79 78 78 77 78 77 77 76 75 74 74 73 73 73 73 72 71 69 66 62 57 49 42 42 52 58 60 60 57 57 58 58 56 50 41 30 19 11 6 4 4 4 4 4 4 4 4 4 4 4 5 5 5 7 15 33 52 65 73 78 81 84 86 86 84 84 85 86 87 86 84 83 82 82 82 82 82 83 83 83 83 83 83 82 82 83 83 83 82 82 82 83 83 82 82 83 82 82 82 82
80 79 78 78 78 77 76 77 77 76 75 74 74 73 72 72 71 71 70 70 68 66 63 60 53 46 43 51 56 58 57 52 52 53 55 53 48 40 30 19 10 5 4 4 4 4 4 4 4 4 4 4 4 4 5 5 5 11 29 44 57 67 74 78 81 84 85 83 83 83 84 86 86 86 85 83 83 82 82 82 82 82 83 83 83 82 82 82 82 83 83 82 82 82 82 82 82 82 82 82 82 82 82
80 79 78 77 77 76 75 75 76 76 75 74 73 72 71 70 70 69 68 68 67 66 64 61 55 48 44 49 53 55 55 50 48 48 50 50 46 39 29 18 10 5 4 4 4 4 4 4 4 4 4 4 4 4 4 5 4 8 19 37 50 61 69 74 78 81 82 82 82 82 83 84 85 85 86 85 84 83 82 82 82 82 83 83 82 82 82 82 82 82 83 83 82 82 82 82 82 81 82 82 82 82 82
80 79 78 77 75 73 71 73 75 76 75 74 72 70 69 69 68 67 67 66 66 66 64 61 56 49 45 46 50 51 46 40 36 36 41 44 43 37 29 17 9 5 5 4 4 4 4 4 4 4 4 4 4 4 4 5 4 7 15 31 43 54 64 70 75 78 79 81 81 81 82 83 83 83 84 85 85 85 84 83 82 82 82 82 82 82 82 82 82 82 82 83 82 82 82 82 82 81 82 82 82 81 82
78 77 77 76 74 71 68 71 74 75 75 74 70 67 64 65 65 65 65 65 65 65 64 61 56 49 43 45 48 46 34 27 21 20 23 30 34 34 29 16 9 6 5 5 4 4 4 4 4 4 4 4 4 4 4 5 4 6 11 26 38 49 59 66 71 75 78 80 81 81 80 81 82 82 82 83 84 84 84 83 83 82 82 82 82 82 82 81 81 81 82 82 82 82 82 82 82 82 81 81 81 81 81
76 75 75 75 74 71 67 68 71 74 75 73 69 63 59 58 59 60 62 63 64 65 63 60 54 48 42 50 51 44 31 23 17 13 11 14 18 21 19 12 8 6 6 5 5 4 4 4 4 4 4 4 4 4 4 4 4 5 8 22 34 45 54 61 68 73 76 78 79 79 79 81 81 81 81 82 83 83 83 83 83 82 81 82 82 82 82 81 80 80 81 81 82 82 82 82 82 82 81 81 81 81 81
75 75 76 76 75 72 68 67 69 72 75 73 69 63 58 54 53 54 58 61 63 64 63 60 56 52 47 49 48 42 33 25 18 13 10 9 9 9 8 8 7 7 6 6 5 5 5 4 4 4 4 4 4 4 4 4 5 5 5 16 28 39 47 54 62 69 74 76 76 77 78 80 81 82 81 81 82 82 83 83 82 82 81 81 82 82 82 81 80 80 80 81 81 81 81 81 82 82 81 81 80 80 80
71 73 75 77 78 77 74 72 72 73 76 75 72 67 61 54 51 52 58 61 63 63 63 62 58 52 46 41 38 35 31 26 20 15 11 9 8 8 8 8 7 7 7 6 6 5 5 5 4 4 4 4 4 4 4 4 5 4 4 12 21 31 39 44 53 63 72 75 75 75 76 79 81 82 83 82 82 82 82 82 81 81 81 81 81 82 82 82 81 80 80 81 81 81 81 81 81 82 82 81 80 79 79
64 66 67 71 75 78 78 76 74 74 74 75 75 71 61 50 44 46 56 55 55 55 54 56 53 47 40 33 29 26 24 21 18 15 11 10 9 9 8 8 8 7 7 7 6 6 5 5 5 4 4 4 4 4 4 4 5 5 4 9 16 23 30 35 44 57 69 74 75 75 75 76 78 79 82 82 83 82 82 81 81 80 80 80 81 81 82 82 81 80 80 81 81 81 82 81 81 81 82 81 80 79 78
57 58 57 60 64 69 73 72 72 71 69 72 75 73 61 46 35 31 36 36 37 38 37 38 38 36 31 26 22 19 16 14 13 12 11 10 10 9 9 8 8 8 7 7 7 6 6 6 5 5 5 5 5 5 5 5 5 5 4 6 11 17 23 29 41 54 66 73 75 75 74 75 76 78 80 83 84 83 82 81 80 80 80 80 81 81 81 81 81 81 80 81 81 82 82 81 81 81 81 81 80 79 78
49 49 48 47 50 54 60 62 64 64 63 64 68 70 62 47 34 24 20 19 20 21 22 22 23 22 21 19 16 13 10 9 8 8 9 9 9 9 9 9 8 8 8 8 7 7 7 6 6 5 5 5 5 5 5 5 5 5 5 4 8 13 19 25 39 53 62 69 73 76 75 74 75 78 80 82 83 84 83 81 80 79 79 80 81 81 81 81 81 81 81 81 81 82 83 82 81 81 80 80 80 79 78
44 41 40 38 38 40 44 48 52 55 58 56 57 57 56 46 35 24 16 13 12 11 12 12 12 12 12 11 10 9 7 6 6 7 8 8 8 9 9 8 8 8 8 8 8 7 7 7 6 6 6 5 5 5 5 5 5 5 5 4 6 10 16 22 34 48 59 65 70 74 76 75 76 77 79 82 82 81 80 78 78 78 79 80 81 82 82 81 80 80 81 80 80 81 83 83 82 81 80 80 80 80 79
42 37 34 32 31 32 33 36 39 44 50 50 48 46 45 41 34 26 19 14 11 8 8 7 7 7 7 7 7 6 6 6 6 6 7 8 8 8 8 8 8 8 8 8 8 8 7 7 7 7 6 6 5 5 5 5 5 5 5 5 5 7 12 18 26 37 51 59 65 70 75 75 76 76 77 79 79 79 78 77 78 79 79 80 81 82 82 81 81 81 81 80 80 80 82 82 82 81 81 81 80 80 79
41 36 30 28 27 27 28 28 30 33 39 42 43 41 38 36 32 26 21 16 12 9 7 6 6 6 6 6 6 6 6 6 6 6 7 7 8 8 8 8 8 8 8 8 8 8 8 7 7 7 7 6 6 6 5 5 5 5 5 5 5 5 8 15 21 29 42 55 62 66 71 74 76 76 76 77 79 80 81 80 79 79 79 80 81 82 82 81 81 80 80 80 80 79 80 81 82 82 81 81 81 80 79
41 34 28 25 24 24 25 24 24 25 29 33 37 38 36 34 30 26 22 17 14 11 8 7 6 6 6 6 6 6 6 6 6 6 7 7 7 7 8 8 8 8 8 8 8 8 8 8 8 8 7 7 7 6 6 5 5 5 5 5 5 5 6 13 20 27 36 53 61 66 69 73 75 76 75 76 77 79 80 78 78 77 78 79 81 81 82 81 81 81 80 80 80 79 79 79 81 82 81 81 81 81 79
41 34 28 24 22 21 21 19 19 20 21 25 29 32 33 32 29 26 22 18 14 11 9 8 6 6 6 6 6 6 6 6 6 6 6 7 7 7 7 7 8 8 8 8 8 8 8 8 8 8 8 8 7 7 6 6 6 5 5 5 5 5 5 10 17 25 33 51 61 66 68 71 73 74 73 74 75 76 79 79 79 78 77 78 79 80 81 81 81 81 79 80 80 80 79 79 80 81 81 82 82 82 80
44 37 31 25 22 19 18 16 15 15 16 19 23 27 27 28 27 25 22 18 15 12 10 8 7 6 6 6 6 6 6 6 6 6 6 6 6 7 7 7 7 7 8 8 8 8 8 8 8 8 8 8 8 8 7 7 6 6 6 5 5 5 4 7 13 21 28 47 58 65 68 63 65 70 74 75 75 75 78 78 78 78 77 78 78 79 79 80 80 81 82 81 81 80 80 79 79 79 81 82 83 83 81
47 40 35 30 26 22 19 16 13 12 12 15 19 22 23 24 24 24 22 19 16 14 11 9 8 6 6 6 6 6 6 6 6 7 6 6 7 7 7 7 7 7 7 8 8 8 8 8 8 8 8 8 8 8 8 7 7 6 6 6 6 5 5 5 9 16 24 38 51 61 68 64 65 68 72 74 76 77 79 80 79 78 77 78 78 78 79 79 80 80 80 80 79 80 80 80 80 79 79 81 82 83 82
51 46 40 35 31 27 24 21 17 14 12 13 16 18 19 21 22 23 21 20 18 15 13 11 10 8 7 7 6 6 6 7 7 7 7 7 7 7 7 7 7 7 7 8 8 8 8 8 8 8 8 8 8 8 8 8 7 7 7 6 6 6 6 5 7 11 19 28 41 55 65 66 67 68 70 75 78 79 80 80 78 76 75 77 78 78 78 78 79 79 80 80 80 80 80 80 80 80 80 80 81 82 81
58 53 47 42 37 33 31 27 23 20 16 14 15 17 18 20 21 21 21 20 18 17 15 14 13 12 10 9 8 7 7 8 8 8 8 8 7 7 7 8 8 8 8 8 8 8 8 8 8 8 8 8 8 8 8 8 8 7 7 7 6 6 6 5 5 8 14 20 33 47 58 65 69 70 69 74 78 80 81 80 81 80 78 77 78 79 77 77 77 78 80 80 80 80 80 80 80 80 81 80 80 80 81
64 59 54 49 45 41 38 34 31 27 24 20 18 18 19 20 21 22 22 21 20 18 17 16 15 14 13 11 10 9 9 9 10 10 10 9 8 8 8 8 8 8 8 9 8 8 8 9 9 8 8 8 8 8 8 8 8 8 7 7 7 7 6 6 6 6 8 14 21 31 45 56 64 67 64 71 76 78 79 80 80 80 81 81 81 81 79 77 77 78 79 80 80 81 80 81 80 80 80 80 80 80 80
68 64 60 56 52 49 45 42 39 36 32 28 24 22 21 22 23 24 25 24 23 22 20 18 17 16 14 13 11 10 9 10 11 12 12 11 10 9 9 9 9 9 9 9 9 9 9 9 9 9 8 8 8 8 8 8 8 8 8 7 7 7 7 7 7 6 6 10 16 22 29 45 57 65 70 72 74 75 76 77 78 79 79 80 80 80 80 78 77 77 78 79 80 80 80 80 80 80 80 80 80 80 80
71 68 65 61 58 55 51 49 47 44 40 36 32 28 26 26 26 27 29 28 27 26 23 21 20 19 17 15 13 11 10 11 12 13 13 12 11 10 11 10 10 10 11 10 10 9 10 10 10 9 9 8 8 8 8 8 8 8 8 8 8 7 7 7 7 7 6 8 12 18 24 36 49 59 67 71 73 73 73 74 76 77 78 79 79 80 80 79 77 76 77 79 80 80 80 80 80 80 81 80 80 80 80
73 71 68 65 62 59 56 54 52 49 46 42 38 34 32 30 30 30 32 31 30 29 26 25 23 21 19 17 15 12 11 11 12 13 13 12 11 11 11 11 11 12 12 11 11 10 11 10 10 10 10 9 9 9 8 9 9 9 8 8 8 8 8 7 7 7 7 6 7 10 16 25 35 46 58 65 69 71 70 71 73 75 77 78 79 79 78 77 77 77 77 78 78 79 80 80 80 81 80 81 80 80 80
75 72 70 67 65 62 60 57 55 53 50 47 43 39 36 34 32 32 33 33 31 29 28 27 25 22 21 19 16 14 12 12 13 13 13 12 12 12 12 12 12 13 13 12 12 12 12 12 11 11 11 10 10 10 9 9 9 9 9 9 9 8 8 8 7 7 7 7 7 7 8 13 21 32 45 56 63 67 68 70 72 74 76 77 78 78 78 78 78 78 78 77 77 78 79 79 79 80 80 80 80 80 80
75 73 71 69 67 64 62 60 58 56 53 50 46 42 39 36 34 33 33 32 30 28 27 25 24 22 21 20 18 16 14 14 14 14 13 13 13 12 11 12 13 13 13 13 14 14 14 13 12 12 12 12 11 11 10 11 11 10 10 10 10 9 9 8 8 8 7 7 7 7 7 8 12 19 28 42 53 61 65 68 70 73 74 75 76 77 78 77 77 77 77 77 77 78 79 78 78 79 79 79 80 80 80
76 74 72 70 67 65 63 61 59 57 55 51 48 44 41 38 36 33 32 30 28 26 25 24 24 23 22 21 20 18 16 16 16 16 15 15 15 14 12 13 14 14 14 15 15 15 15 14 14 13 13 12 12 12 12 12 12 12 12 11 11 10 10 9 9 8 8 7 7 7 8 8 8 11 16 27 40 51 59 64 68 71 73 73 74 75 76 77 77 77 77 79 80 80 78 77 77 77 78 79 80 80 80
76 75 73 71 68 66 64 62 60 58 55 52 49 45 42 39 36 34 32 29 27 26 25 24 25 25 24 23 22 21 19 19 19 19 18 18 17 16 15 15 15 16 16 16 16 16 16 16 15 15 14 13 14 14 14 13 13 13 13 13 12 12 11 11 10 10 9 8 8 7 7 8 8 9 10 16 25 36 50 58 64 67 70 71 72 73 75 76 78 78 78 79 79 79 75 75 75 76 77 78 79 79 79
77 75 74 72 69 67 65 63 61 59 56 52 49 46 42 39 37 34 32 30 29 28 27 27 27 27 26 26 25 25 23 22 22 22 21 21 20 19 18 18 18 18 18 18 18 18 18 18 17 17 16 16 16 16 15 14 14 14 14 14 13 13 12 12 11 11 10 9 8 8 8 8 9 9 10 11 16 24 36 48 56 61 65 68 70 72 74 75 77 77 77 77 78 78 75 76 76 76 77 78 78 78 78
78 76 74 72 70 68 66 64 61 59 55 52 49 45 42 39 37 35 33 32 31 30 30 30 30 29 29 29 28 28 27 26 26 25 25 24 23 23 22 22 21 20 20 20 20 20 20 20 20 19 19 19 18 18 16 16 15 14 14 14 14 14 14 13 12 12 11 10 9 9 8 8 9 10 11 11 13 17 24 35 44 52 60 64 67 70 73 74 75 77 77 78 78 78 78 77 77 77 77 77 78 78 77
78 76 75 73 71 69 67 64 61 58 55 51 48 45 41 40 38 36 34 33 33 33 33 33 32 32 32 31 31 31 31 30 29 28 28 28 27 26 25 25 24 23 23 23 23 22 22 22 22 22 23 23 22 20 18 17 16 15 14 15 15 15 15 14 13 13 12 12 11 10 9 9 9 10 11 11 12 14 18 26 36 46 55 60 64 68 72 73 74 75 76 77 77 77 79 78 77 77 77 77 77 78 77
77 76 74 72 70 68 67 64 61 58 54 51 47 44 42 40 39 37 36 35 34 34 35 35 34 34 33 33 33 32 32 32 31 31 31 31 30 29 29 28 27 26 26 26 25 25 25 25 25 25 26 26 25 24 22 20 18 16 15 16 16 16 16 15 14 14 13 13 12 11 10 10 10 10 11 12 12 12 13 17 24 33 41 51 58 64 70 72 73 74 75 75 76 77 78 78 77 77 77 77 77 77 76
75 74 73 71 69 67 66 64 61 57 54 50 47 44 42 41 40 38 37 37 36 36 36 36 36 36 36 35 34 34 33 33 33 33 33 33 33 33 32 31 31 30 30 29 28 27 27 27 28 28 29 28 28 27 26 24 22 20 19 17 17 16 16 16 15 15 14 14 13 12 11 10 10 10 11 13 13 12 11 10 12 16 22 31 41 51 61 67 70 71 72 73 75 76 77 78 78 78 76 76 76 76 76
73 72 70 69 67 66 64 62 59 56 53 50 47 45 44 43 42 41 40 39 38 38 38 38 37 37 37 37 37 36 35 35 35 35 36 36 36 35 35 34 34 33 33 32 31 30 30 31 31 31 31 31 30 29 28 27 25 24 23 20 18 17 17 16 15 15 15 14 14 13 12 11 11 11 12 13 13 13 11 10 10 10 11 15 21 30 42 54 62 66 69 71 73 75 76 77 77 77 75 75 75 76 77
70 69 68 67 65 64 62 60 58 56 53 50 49 47 46 45 44 43 42 41 41 40 40 40 39 39 39 38 38 38 37 37 37 37 38 38 37 37 37 36 35 35 34 34 33 33 33 33 33 32 32 31 31 30 29 28 27 26 24 22 20 19 17 16 16 15 14 14 14 13 13 12 11 11 12 13 13 13 12 11 10 10 10 10 12 16 22 35 46 56 63 67 70 72 74 75 75 75 74 75 75 76 76
66 65 65 64 63 62 60 59 57 55 53 51 50 49 48 47 46 45 44 43 42 41 41 41 41 41 41 41 40 40 39 39 38 39 40 40 40 39 38 37 36 36 35 34 34 33 33 34 33 33 32 32 32 31 30 30 29 28 25 24 23 21 19 17 16 15 14 14 14 13 13 12 12 12 12 13 14 14 13 12 11 11 11 11 11 12 13 21 31 44 56 63 68 71 73 75 75 75 75 75 75 76 77
63 62 61 61 60 59 58 57 56 55 53 52 51 50 49 48 47 46 45 44 43 42 42 42 41 42 42 42 42 41 40 39 39 40 41 42 42 41 39 37 36 35 35 34 34 33 33 33 33 33 33 33 33 33 32 32 31 30 28 27 26 24 22 20 18 17 16 16 15 14 13 13 13 13 13 13 14 14 14 13 12 11 11 12 12 13 13 14 19 27 40 50 58 65 69 72 74 75 75 76 76 77 77
61 60 59 58 58 57 56 56 55 54 53 52 51 50 50 49 48 47 46 45 44 43 43 43 42 42 42 42 42 42 41 40 40 41 42 42 41 41 41 38 37 36 36 35 34 33 33 33 33 33 33 33 33 33 33 33 33 33 32 31 30 28 26 25 24 23 22 20 18 16 15 14 14 13 14 14 14 15 15 14 13 12 11 12 13 14 14 14 15 17 21 28 35 42 48 55 63 69 71 73 75 76 75
60 59 58 57 57 56 55 54 54 53 52 52 51 51 50 49 49 48 47 46 45 44 44 43 42 42 42 41 41 41 41 41 40 40 41 41 41 41 41 40 41 41 40 36 34 34 34 34 34 34 33 33 33 33 33 35 35 35 35 35 34 33 32 32 31 30 30 28 26 23 19 17 15 14 14 15 15 16 16 16 14 13 12 13 13 14 15 16 16 16 16 18 20 23 27 33 48 62 69 71 74 75 74
59 58 57 57 56 55 54 54 53 53 52 52 52 51 51 50 49 48 48 47 46 45 44 44 43 42 41 41 41 41 41 41 40 40 40 40 41 41 41 45 46 45 44 40 40 39 37 37 37 37 34 33 32 33 34 36 37 38 37 37 37 36 36 36 36 37 37 36 33 30 26 22 18 16 15 16 16 17 17 17 16 14 13 13 14 15 16 17 17 18 18 18 18 19 20 25 41 58 69 71 73 75 75
56 56 56 55 55 54 54 54 53 52 52 52 51 51 51 50 50 49 48 47 47 46 45 45 44 43 42 41 41 40 40 41 41 40 40 40 41 43 47 49 51 51 49 44 42 41 42 41 39 37 35 34 33 33 34 36 37 38 38 39 39 39 39 39 40 41 41 40 39 36 33 29 24 20 17 17 17 18 19 18 17 16 14 14 15 16 17 18 18 19 21 21 21 21 21 21 33 51 69 70 72 74 76
52 52 53 53 53 53 53 52 52 52 51 51 51 50 50 50 49 49 48 47 47 46 46 45 45 44 44 42 41 40 40 40 40 41 41 40 40 42 45 48 50 51 50 47 45 45 48 52 45 37 35 34 34 34 35 35 36 38 39 40 40 41 41 41 42 42 42 42 41 40 38 35 31 26 21 19 18 18 19 19 19 17 16 16 16 17 18 19 20 21 22 22 22 22 22 21 32 47 60 70 72 73 74
47 48 49 50 50 50 50 51 51 51 51 50 50 50 50 49 48 48 47 47 46 46 45 45 45 45 44 44 43 42 41 40 41 41 41 41 41 40 39 44 47 50 49 49 50 52 55 50 50 48 40 36 34 35 36 36 35 36 38 39 40 40 40 41 41 42 42 42 42 41 40 38 35 31 26 22 19 19 19 20 20 19 18 17 17 18 19 20 21 22 23 23 23 23 22 22 23 26 33 57 68 71 71
43 44 45 46 47 47 48 49 49 50 50 50 50 49 49 48 48 48 47 47 46 46 45 45 45 45 44 44 43 43 42 42 42 42 42 42 42 41 41 41 43 46 47 50 52 53 52 43 45 48 45 41 38 36 35 35 35 35 35 36 37 38 39 40 41 41 41 41 41 41 40 40 38 35 30 25 21 19 19 20 20 20 19 18 19 19 20 21 22 23 24 24 24 23 22 22 23 22 19 30 50 67 70
40 41 42 42 43 45 46 47 47 48 48 49 49 49 48 48 48 48 47 47 46 46 46 45 45 45 45 44 44 44 44 44 43 43 43 43 43 43 43 42 41 40 39 43 45 45 45 45 46 48 48 43 40 38 37 37 36 36 36 35 35 36 37 39 40 40 40 40 40 40 40 40 38 36 33 28 23 20 19 20 21 21 20 20 20 20 22 22 23 24 24 25 24 23 22 22 23 23 22 19 37 60 71
38 39 40 41 42 43 44 45 46 46 47 48 48 48 49 49 48 48 47 47 47 46 46 46 46 45 45 45 45 46 46 45 44 43 43 45 46 46 46 46 45 44 43 42 41 41 43 47 49 49 48 44 41 40 39 38 38 37 37 36 36 36 36 38 39 39 39 39 39 39 40 39 38 37 35 31 26 22 19 20 21 21 21 21 21 22 22 23 24 24 25 25 25 24 23 23 23 23 23 23 41 61 70
37 38 39 40 41 42 43 44 45 46 46 47 48 48 49 49 48 48 48 47 47 47 47 47 46 46 46 46 46 47 47 46 45 44 44 45 46 47 48 49 49 48 47 46 46 45 45 46 48 50 49 48 46 43 41 41 40 39 38 37 37 37 36 36 37 37 37 37 37 37 38 38 38 38 37 33 30 25 22 21 21 22 22 22 22 22 23 24 24 25 25 25 25 25 24 24 24 25 26 38 56 70 70
38 39 40 40 41 42 42 44 44 45 46 47 47 48 48 48 48 48 48 48 48 48 48 47 47 47 47 47 47 47 47 47 46 46 45 45 44 45 47 49 51 52 51 51 50 50 49 49 48 48 49 51 49 47 45 44 42 41 40 39 38 38 37 36 36 36 36 35 35 35 36 37 38 38 38 35 32 29 26 24 23 22 23 23 23 23 24 24 24 25 25 25 25 25 25 26 27 28 29 48 62 70 69
Wind_Speed
11 11 11 11 10 10 10 10 9 9 9 8 8 8 8 7 7 7 7 7 7 7 7 8 8 8 8 8 8 8 8 9 9 9 9 8 7 7 6 7 7 8 8 7 7 7 6 6 5 5 6 6 7 8 9 11 13 15 16 17 17 16 15 12 12 12 11 11 11 11 11 12 12 12 12 12 12 12 12 12 13 13 13 13 13 13 13 13 14 14 14 14 14 14 14 15 15 15 15 16 16 16 16
11 11 11 11 10 10 10 10 9 9 9 8 8 8 7 7 7 7 7 7 7 7 7 7 7 7 7 8 8 8 8 8 8 8 8 7 7 6 6 6 7 7 7 7 7 7 6 6 5 5 5 5 6 6 8 9 11 13 15 16 16 15 13 11 11 11 11 11 11 11 11 11 11 11 12 12 12 12 12 12 12 12 12 13 13 13 13 13 13 13 14 14 14 14 14 14 15 15 15 15 15 15 16
11 11 11 11 11 10 10 10 9 9 9 9 8 8 8 7 7 7 7 7 7 7 7 7 7 7 7 7 7 7 7 7 8 8 8 7 6 6 5 5 6 7 7 7 7 6 6 6 5 5 5 5 5 6 7 8 10 12 14 15 15 14 12 11 10 11 11 11 11 11 11 11 11 11 11 11 11 12 12 12 12 12 12 12 12 12 13 13 13 13 13 13 13 14 14 14 14 14 15 15 15 15 15
12 12 11 11 11 11 10 10 10 9 9 9 8 8 8 7 7 7 7 6 6 6 6 6 6 6 6 6 6 6 7 7 7 7 7 6 6 5 4 4 6 7 7 7 6 6 6 6 5 5 5 5 5 6 6 7 9 11 14 15 15 13 11 10 10 10 10 10 10 10 10 10 10 10 10 11 11 11 11 11 12 12 12 12 12 12 12 12 12 13 13 13 13 13 13 14 14 14 14 14 15 15 15
12 12 12 11 11 11 11 10 10 10 9 9 8 8 8 8 7 7 7 6 6 6 6 6 6 6 6 6 6 6 6 6 6 7 7 6 6 5 3 4 5 6 7 7 6 6 6 5 5 5 5 5 5 6 6 7 8 11 13 14 14 12 9 9 9 9 9 9 10 10 10 10 10 10 10 10 10 10 11 11 11 11 11 11 12 12 12 12 12 12 12 13 13 13 13 13 13 14 14 14 14 14 15
12 12 12 12 11 11 11 11 10 10 9 9 9 8 8 8 7 7 7 6 6 6 6 6 5 5 5 5 5 5 5 6 6 6 6 6 5 4 3 3 5 6 7 6 6 6 6 5 5 4 4 4 5 6 6 7 8 9 11 13 13 11 8 8 9 9 9 9 9 9 9 9 9 9 9 9 10 10 10 10 10 10 11 11 11 11 11 12 12 12 12 12 12 13 13 13 13 13 13 14 14 14 14
13 13 12 12 12 11 11 11 10 10 10 9 9 8 8 8 7 7 7 7 6 6 6 5 5 5 5 5 5 5 5 5 5 6 6 6 5 4 2 2 4 6 7 6 6 6 6 5 5 4 4 4 4 5 6 6 7 8 10 12 11 9 8 8 8 8 8 8 8 8 8 9 9 9 9 9 9 9 9 10 10 10 10 10 10 11 11 11 11 11 12 12 12 12 12 12 13 13 13 13 13 14 14
13 13 13 13 12 12 12 11 11 10 10 9 9 8 8 8 7 7 7 6 6 6 6 5 5 5 5 5 4 4 4 4 5 5 5 5 4 3 2 1 3 5 7 6 6 6 6 5 4 4 3 3 4 4 5 5 6 7 9 11 10 8 7 7 7 7 7 8 8 8 8 8 8 8 9 8 8 8 9 9 9 9 10 10 10 10 10 10 11 11 11 11 11 12 12 12 12 12 13 13 13 13 13
14 14 13 13 13 12 12 12 11 11 10 10 9 9 8 8 7 7 6 6 6 6 5 5 5 5 5 4 4 4 4 4 4 4 4 4 4 3 1 1 3 5 6 6 6 6 5 5 4 4 3 3 3 3 4 4 5 7 9 11 10 8 6 6 7 7 7 7 7 7 7 7 7 8 8 8 8 8 8 8 9 9 9 9 9 9 10 10 10 10 11 11 11 11 12 12 12 12 12 12 13 13 13
14 14 14 14 13 13 13 12 12 11 11 10 10 9 9 8 7 7 6 6 6 6 5 5 5 5 5 4 4 4 4 4 4 4 4 4 3 2 1 1 3 5 6 6 6 6 5 5 4 4 3 3 2 2 2 3 4 5 8 10 9 7 6 6 6 6 6 6 6 6 6 7 7 7 7 7 7 7 7 8 8 8 8 9 9 9 9 9 10 10 10 10 11 11 11 11 12 12 12 12 12 12 13
15 15 14 14 14 13 13 13 12 12 11 11 10 10 9 8 8 7 7 6 6 6 5 5 5 5 5 5 4 4 4 3 3 4 4 3 3 2 2 2 3 4 5 6 6 6 5 5 5 4 4 3 2 2 1 2 2 4 6 8 7 5 5 5 5 5 6 6 6 6 6 6 6 6 6 6 7 7 7 7 7 7 8 8 8 8 9 9 9 9 10 10 10 10 11 11 11 11 12 12 12 12 12
15 15 15 14 14 14 13 13 13 12 12 11 11 10 9 9 8 7 7 6 6 6 6 5 5 5 5 5 4 4 4 4 4 3 4 3 3 3 3 3 4 4 5 6 6 6 5 5 5 5 4 3 3 2 1 1 1 2 4 6 6 4 5 5 5 5 5 5 5 5 5 5 5 5 6 6 6 6 6 6 6 7 7 7 8 8 8 8 9 9 9 9 10 10 10 11 11 11 11 11 12 12 12
15 15 15 15 14 14 14 13 13 12 12 12 11 10 10 9 8 8 7 7 6 6 6 6 6 5 5 5 5 4 4 4 4 4 4 3 3 4 4 4 4 4 5 6 6 6 6 5 5 5 5 4 4 3 2 2 1 1 3 4 4 4 4 4 4 4 4 4 4 5 5 5 5 5 5 5 5 5 5 6 6 6 6 7 7 7 7 8 8 8 9 9 9 9 10 10 10 11 11 11 11 12 12
16 16 15 15 15 14 14 13 13 13 12 12 11 11 10 10 9 8 8 7 7 6 6 6 6 6 5 5 5 5 5 5 4 4 4 4 4 4 5 5 5 5 5 5 6 6 6 6 5 5 5 5 4 4 3 3 2 1 2 3 3 3 3 3 4 4 4 4 4 4 4 4 4 4 4 4 4 5 5 5 5 5 6 6 6 6 7 7 7 8 8 8 9 9 9 10 10 10 11 11 11 11 12
16 16 16 15 15 15 14 14 13 13 13 12 12 11 11 10 9 9 8 8 7 7 6 6 6 6 6 5 6 6 6 5 5 5 4 4 5 5 6 6 5 5 5 5 6 6 6 6 6 6 6 5 5 5 4 4 4 3 1 2 2 2 2 3 3 3 3 3 3 3 3 4 4 4 4 4 4 4 4 4 4 5 5 5 5 6 6 6 7 7 7 8 8 8 9 9 9 10 10 10 11 11 11
16 16 16 16 16 15 15 14 14 13 13 13 12 12 11 11 10 10 9 8 8 7 7 7 7 7 6 6 6 6 6 6 6 5 5 5 5 6 7 7 6 5 5 6 6 6 6 6 6 6 6 6 6 5 5 5 4 4 1 1 2 1 1 2 2 2 2 2 3 3 3 3 3 3 3 4 4 3 4 4 4 4 4 5 5 5 5 6 6 6 7 7 7 8 8 8 9 9 10 10 10 10 11
17 17 16 16 16 16 15 15 14 14 13 13 13 12 12 11 11 10 10 9 8 8 8 8 8 8 7 7 7 8 9 8 7 7 6 6 6 7 8 8 7 6 6 6 6 6 7 6 7 7 7 6 6 6 6 5 5 4 3 1 1 1 0 1 1 1 1 2 2 2 2 3 3 3 3 3 3 3 3 4 4 4 4 4 4 4 5 5 5 6 6 6 7 7 7 8 8 9 9 9 10 10 10
18 17 17 16 16 16 16 15 15 14 14 13 13 13 12 12 11 11 10 10 9 9 9 8 9 9 8 7 8 10 11 10 8 8 7 7 7 7 8 8 7 7 7 7 7 7 7 7 7 7 7 7 7 6 6 6 5 5 4 3 2 1 1 1 2 2 2 2 2 2 2 2 2 3 3 3 3 3 3 3 3 3 3 4 4 4 4 4 5 5 6 6 6 7 7 7 8 8 8 9 9 9 10
19 18 17 17 17 17 17 16 15 15 14 14 14 14 13 13 12 11 11 10 10 10 9 9 9 9 9 7 9 11 11 10 9 9 9 9 9 9 9 9 8 8 8 8 8 8 8 8 7 7 7 8 7 7 7 6 6 6 5 4 3 2 2 2 2 2 2 3 2 2 2 2 3 3 3 3 3 3 3 3 3 3 3 3 4 4 4 4 4 5 5 5 6 6 7 7 7 8 8 8 8 9 9
20 18 17 17 17 17 17 16 16 15 14 14 14 14 14 13 12 12 11 11 10 10 10 10 9 9 9 10 12 13 12 11 10 10 10 10 11 11 10 10 9 9 9 8 8 8 8 8 8 8 8 8 8 8 8 7 7 6 6 5 4 4 3 3 3 3 3 3 3 3 3 3 3 3 3 3 3 3 3 3 3 3 3 3 4 4 4 4 4 4 5 5 5 6 6 6 7 7 7 8 8 8 9
21 20 18 17 17 16 16 16 16 15 15 15 15 15 15 15 14 12 12 11 11 11 10 10 11 11 12 13 13 13 13 12 11 11 11 11 11 11 11 11 10 10 10 9 9 9 9 9 9 9 9 9 9 9 8 8 8 7 7 6 5 5 5 4 4 4 4 4 4 4 4 4 4 4 4 4 4 4 4 4 4 4 4 4 4 4 4 4 4 4 4 5 5 6 6 6 7 7 7 7 7 8 8
23 22 21 19 18 17 17 17 17 16 16 15 15 16 17 17 16 14 13 14 14 14 13 12 13 14 15 14 14 14 14 13 12 12 12 12 12 12 12 11 11 11 11 10 10 10 10 10 10 9 9 9 9 9 9 9 9 8 8 7 6 6 6 5 5 4 5 5 5 5 5 5 5 5 5 5 5 4 4 4 4 4 4 4 4 4 4 4 4 4 4 5 5 6 6 6 7 7 7 7 7 7 8
24 24 23 22 21 20 19 19 19 18 18 17 16 18 19 18 18 17 16 16 16 16 16 15 15 15 16 15 15 15 15 14 14 14 13 13 13 13 13 12 12 12 12 11 11 11 11 11 11 10 10 10 10 10 10 10 9 9 9 8 7 7 7 6 6 5 6 6 6 6 6 6 6 6 6 6 5 5 5 5 5 5 5 5 5 5 5 5 5 5 5 5 5 6 6 7 7 7 8 7 7 7 8
25 25 24 23 22 22 21 20 20 20 19 19 19 19 20 20 19 19 18 18 17 17 17 17 17 17 17 17 16 16 16 15 15 15 15 14 14 14 14 13 13 13 13 12 12 12 12 12 12 11 11 11 11 11 11 10 10 10 9 9 8 8 8 7 7 7 7 7 7 7 7 7 7 7 7 7 6 6 6 6 6 6 6 6 6 6 5 5 5 5 5 5 6 6 7 7 7 7 8 8 7 7 8
26 26 25 25 24 23 23 22 21 21 21 21 21 21 21 21 21 20 19 19 18 18 18 18 18 18 18 18 18 17 17 16 16 16 15 15 15 15 15 14 14 14 14 13 13 13 13 13 13 12 12 12 12 11 11 11 11 11 10 10 9 9 8 8 8 8 8 8 8 8 8 8 8 8 8 8 7 7 7 7 7 7 6 6 6 6 6 6 6 6 6 6 6 7 7 7 8 8 8 8 8 8 8
27 26 26 26 25 24 24 23 23 22 22 22 23 22 22 22 22 21 21 20 19 19 19 19 19 19 19 19 19 19 18 18 17 17 16 16 16 16 16 15 15 15 14 14 14 14 14 14 14 13 13 13 13 12 12 12 12 12 12 11 10 10 10 9 9 9 9 9 9 9 9 9 9 9 9 9 9 8 8 8 7 7 7 7 7 7 7 7 7 7 7 7 7 7 8 8 8 8 9 9 8 8 8
27 27 27 26 26 25 25 25 24 24 23 23 24 24 24 23 23 23 22 21 20 20 20 20 20 20 20 20 20 20 20 19 19 18 18 18 17 17 17 16 16 16 15 15 15 15 15 15 15 15 14 14 14 13 13 13 13 13 13 12 12 11 11 10 10 10 10 10 10 10 10 10 10 10 10 10 10 9 9 9 8 8 8 8 8 8 8 7 7 7 7 7 7 8 8 8 9 9 9 9 9 8 8
28 28 27 27 27 26 26 26 26 25 25 25 25 25 25 25 25 24 23 22 22 21 21 21 21 21 21 21 21 21 21 21 20 20 19 19 19 19 18 18 17 17 16 16 16 16 16 16 16 16 15 15 15 15 14 14 14 14 14 13 13 12 12 11 11 11 11 11 11 11 11 11 11 11 11 10 10 10 10 10 9 9 9 9 9 8 8 8 8 8 8 8 8 8 8 9 9 9 9 9 9 9 9
29 29 28 28 27 27 27 27 27 26 26 26 26 26 26 26 26 25 25 24 23 23 22 22 22 22 22 22 23 23 23 22 22 22 21 21 20 20 20 19 18 18 17 17 17 17 17 17 17 17 17 16 16 16 15 15 15 15 14 14 14 14 13 13 12 12 12 12 12 12 12 12 12 11 11 11 11 11 11 11 10 10 10 10 9 9 9 9 9 9 9 9 9 8 9 9 9 9 9 9 9 9 9
30 30 29 28 28 28 28 28 28 28 27 27 27 27 27 27 27 27 26 26 25 24 24 23 23 23 24 24 24 24 24 24 24 23 23 23 22 22 21 21 20 19 19 19 18 18 18 18 18 18 18 17 17 17 17 16 16 16 16 15 15 15 14 14 14 13 13 13 13 13 13 13 13 12 12 12 12 12 12 12 11 11 11 10 10 10 10 9 9 9 9 9 9 9 9 9 9 9 10 10 10 9 9
32 31 30 30 29 29 29 29 29 29 29 28 29 28 28 28 28 28 27 27 26 26 25 25 25 25 25 25 26 26 25 25 25 25 25 25 24 23 23 22 21 21 20 20 20 20 20 20 20 19 19 19 18 18 18 18 17 17 17 17 17 16 16 15 15 15 15 14 14 14 14 14 14 13 13 13 13 13 12 12 12 12 11 11 11 10 10 10 10 10 10 10 9 9 9 9 10 10 10 10 10 10 10
33 33 32 31 31 30 30 30 30 30 30 30 30 30 29 29 29 29 28 28 28 27 27 27 26 26 26 27 27 27 27 27 27 27 27 27 26 25 25 24 23 22 22 21 21 21 21 21 21 21 21 20 20 20 19 19 19 18 18 18 18 18 17 17 16 16 16 16 15 15 15 14 14 14 14 14 14 13 13 13 13 12 12 12 11 11 11 11 10 10 10 10 10 10 10 10 10 10 10 10 10 10 10
35 34 34 33 33 32 32 32 32 32 31 31 31 31 30 30 30 30 30 29 29 29 28 28 28 28 28 28 28 28 28 28 28 29 29 29 28 27 26 26 25 24 23 23 23 23 22 22 23 22 22 22 21 21 21 20 20 20 20 19 19 19 19 18 18 17 17 17 16 16 16 16 15 15 15 15 14 14 14 14 13 13 13 12 12 12 12 11 11 11 11 11 11 10 10 10 10 10 10 10 10 10 10
36 36 35 35 34 34 33 33 33 33 32 32 32 32 32 31 31 31 31 31 30 30 30 30 29 29 29 29 29 29 29 29 29 30 30 30 30 29 28 28 27 26 25 25 25 24 24 24 24 24 23 23 23 22 22 22 22 21 21 21 21 20 20 20 19 19 18 18 18 17 17 17 16 16 16 16 15 15 15 14 14 14 14 13 13 12 12 12 12 12 11 11 11 11 11 11 11 11 11 11 11 11 11
37 36 36 36 36 36 35 35 35 34 33 33 33 33 33 33 32 32 32 32 32 32 32 31 31 31 30 30 30 30 30 30 30 31 31 32 32 31 30 29 29 28 27 27 27 26 26 25 25 25 25 25 24 24 24 23 23 23 23 22 22 22 21 21 21 20 20 19 19 18 18 18 17 17 17 17 16 16 15 15 15 14 14 14 14 13 13 13 13 12 12 12 12 12 12 11 11 11 11 11 11 11 11
37 37 37 37 37 37 37 37 36 35 35 34 34 34 34 34 34 34 34 34 34 34 33 33 32 32 32 32 32 32 32 31 31 32 33 33 33 33 32 31 31 30 29 29 29 28 28 27 27 27 26 26 25 25 25 25 25 24 24 24 23 23 23 23 22 22 21 21 20 19 19 19 19 18 18 18 17 17 16 16 16 15 15 15 14 14 14 14 13 13 13 13 13 13 12 12 12 12 12 12 11 11 11
38 38 38 38 38 38 38 38 37 36 35 35 35 35 35 35 35 35 35 35 35 35 35 34 34 34 34 33 34 34 33 33 33 33 34 35 34 34 34 33 32 32 32 31 31 30 30 29 29 28 28 27 27 27 26 26 26 26 25 25 25 24 24 24 24 23 23 22 21 21 20 20 20 20 19 19 18 18 17 17 16 16 16 15 15 15 15 15 14 14 14 13 13 13 13 13 13 13 12 12 12 12 12
39 38 38 38 39 39 39 39 38 37 36 36 36 36 36 36 36 36 36 36 36 36 35 36 36 35 35 35 35 35 35 34 34 35 36 36 36 36 36 35 34 34 34 33 32 32 32 31 31 30 29 29 29 28 28 28 28 27 27 26 26 26 26 25 25 24 24 23 23 22 21 21 21 21 21 20 20 19 18 18 17 17 17 16 16 16 15 15 15 15 14 14 14 14 14 14 14 13 13 13 13 12 12
39 39 39 39 39 40 40 39 38 37 37 36 36 36 36 36 37 37 36 37 36 36 36 36 37 36 36 37 36 36 36 36 36 37 37 37 37 38 37 37 36 36 36 35 35 34 34 33 33 32 31 31 30 30 29 29 29 29 28 28 28 27 27 27 26 26 25 25 24 23 23 22 22 22 22 22 21 20 20 19 18 18 17 17 17 16 16 16 16 15 15 15 15 15 14 14 14 14 14 13 13 13 13
41 40 40 40 40 41 40 39 38 38 37 37 37 37 37 37 37 37 37 37 37 37 37 37 37 37 38 38 38 37 37 37 37 38 39 39 39 39 39 38 38 37 37 37 37 37 36 36 35 34 33 33 32 31 31 31 31 31 30 29 29 29 28 28 27 27 27 26 26 25 24 23 23 23 23 23 22 22 21 20 19 19 18 18 17 17 17 16 16 16 16 15 15 15 15 15 15 14 14 14 14 14 13
41 41 41 41 41 41 40 39 39 38 37 37 37 37 37 37 38 38 38 38 38 38 38 37 36 37 37 38 38 38 38 38 39 39 40 40 40 40 40 39 39 39 39 39 39 39 38 38 37 36 35 34 34 33 34 33 33 32 32 31 31 30 29 29 28 28 28 28 27 26 25 24 23 23 23 24 24 23 22 21 20 19 19 19 18 18 17 17 16 16 16 16 15 15 15 15 15 15 15 15 14 14 14
41 41 41 41 41 41 40 39 39 38 38 38 38 37 37 38 38 39 38 38 38 38 37 37 36 36 36 37 37 37 38 39 39 40 40 41 41 41 41 40 40 40 40 40 40 40 40 40 39 38 37 36 36 36 36 35 35 34 34 33 33 32 31 30 30 30 29 29 28 27 26 25 24 24 24 24 25 25 24 23 22 21 20 19 19 18 18 17 17 17 16 16 16 16 16 16 15 15 15 15 15 15 14
41 41 41 41 41 41 39 39 38 38 37 37 37 37 37 38 38 38 38 37 37 36 36 36 36 36 36 36 36 36 37 38 39 39 40 40 41 41 41 41 41 41 41 41 41 41 41 41 41 40 39 39 38 38 38 38 37 36 36 35 34 34 33 32 32 31 31 30 29 29 28 27 26 25 25 25 25 26 25 25 23 22 21 20 20 19 19 18 18 17 17 17 16 16 16 16 16 16 15 15 15 15 15
40 41 41 41 41 40 39 38 38 37 37 37 37 37 37 37 37 37 37 36 35 35 35 35 35 35 35 35 36 36 36 36 37 38 38 39 39 40 41 41 42 42 42 42 42 42 42 42 42 41 41 40 40 40 40 40 39 38 38 37 36 35 35 34 34 33 32 32 31 30 29 28 27 26 26 26 26 27 27 26 25 24 22 21 21 20 20 19 18 18 17 17 17 16 16 16 16 16 16 16 15 15 15
40 40 40 41 40 40 39 39 38 37 37 36 36 36 36 36 35 35 35 35 35 35 35 35 34 34 34 35 35 35 36 36 36 36 36 36 37 38 39 40 41 41 41 42 42 42 42 43 42 42 42 42 42 42 42 42 42 41 40 39 38 38 37 36 36 35 34 33 32 31 31 30 29 28 27 27 27 28 29 28 28 26 25 23 22 21 20 20 19 18 18 17 17 17 17 17 16 16 16 16 16 16 16
39 39 39 40 40 40 39 38 37 37 36 36 35 35 35 35 35 35 35 35 35 35 35 34 33 33 33 34 34 35 35 36 35 34 33 34 34 35 36 37 38 38 39 40 41 42 42 42 42 42 42 42 42 42 42 42 42 42 41 41 40 40 39 39 38 37 36 35 34 33 32 32 31 30 29 28 28 29 30 30 30 29 27 26 24 22 21 20 20 19 18 18 18 17 17 17 17 17 16 16 16 16 16
38 39 39 39 39 39 39 38 37 36 36 35 35 35 35 35 35 35 35 34 34 34 35 34 33 33 33 33 33 34 34 34 33 32 31 32 32 32 33 34 35 36 37 38 39 40 40 40 40 41 41 42 42 42 42 42 42 42 42 43 42 42 41 41 40 39 38 37 36 35 34 33 33 32 31 30 30 30 31 31 31 30 29 28 26 25 23 22 21 20 19 19 18 18 18 17 17 17 17 17 17 17 16
37 38 38 38 38 38 37 37 37 36 36 35 35 36 36 36 35 35 35 34 33 33 33 32 31 32 32 32 33 33 33 32 32 31 30 30 31 32 32 33 34 36 37 38 38 39 39 39 40 42 42 42 43 43 43 43 43 43 43 44 44 44 44 43 42 41 40 39 38 37 36 35 34 33 33 32 31 31 32 32 32 31 30 29 27 26 25 24 23 21 20 19 19 18 18 18 18 18 18 17 17 17 17
36 37 37 37 37 37 37 37 37 37 36 36 36 37 38 36 35 35 34 33 33 33 32 31 30 29 30 31 31 32 31 30 30 29 27 25 25 27 29 29 31 33 36 36 36 36 37 37 39 40 42 42 42 43 43 43 43 44 45 44 44 45 46 46 45 44 42 41 40 39 37 36 36 35 34 33 33 32 32 33 33 32 31 29 28 27 26 25 24 23 22 20 19 19 18 18 18 18 18 18 18 17 17
36 36 36 36 37 37 37 37 37 37 37 37 38 37 37 36 35 34 33 33 32 32 30 30 29 29 28 28 29 29 29 29 28 25 22 21 19 18 19 21 23 25 27 29 30 31 33 34 36 37 38 38 39 39 40 41 41 42 44 44 44 45 47 47 47 46 45 44 43 41 39 38 37 36 36 35 34 34 33 33 34 33 32 30 28 27 27 26 26 24 23 22 21 20 19 19 18 18 18 18 18 17 17
36 36 36 36 36 36 37 37 36 36 36 37 37 37 36 35 34 34 33 33 32 31 29 28 28 28 28 28 28 28 27 27 25 21 17 18 19 16 12 14 18 21 24 24 25 26 27 29 31 32 33 34 35 35 37 37 39 40 41 42 43 44 45 46 46 46 46 46 45 44 42 40 39 38 37 36 36 35 35 34 34 34 32 31 29 28 28 27 26 25 24 23 22 21 20 19 19 19 18 18 18 18 18
36 37 37 37 37 37 37 36 36 36 36 35 35 35 35 35 34 34 34 34 34 33 31 28 27 26 25 27 27 28 27 26 25 23 20 19 18 18 16 13 11 8 7 14 17 18 22 25 27 29 30 31 32 33 34 34 36 37 38 39 41 42 42 42 43 43 43 44 45 45 44 42 41 39 38 38 37 36 36 35 35 34 33 31 30 29 28 27 26 25 24 23 22 21 20 20 19 19 19 19 19 18 18
37 38 38 37 37 37 37 36 36 36 36 35 34 34 35 34 34 34 34 34 34 34 33 32 29 26 25 24 24 25 26 26 26 26 26 23 18 15 14 7 5 5 3 5 7 10 15 18 21 25 27 28 29 30 31 32 33 35 36 36 38 39 40 39 39 38 38 40 42 43 44 43 42 41 40 39 38 37 36 36 35 35 34 32 30 29 28 27 26 24 23 22 21 21 20 20 19 19 19 19 19 19 19
39 39 39 38 38 37 37 36 36 37 36 36 35 34 34 34 34 34 34 34 33 33 32 32 31 29 26 25 24 24 25 26 26 27 27 26 20 12 6 4 4 5 5 3 6 9 6 5 9 16 20 22 23 25 27 30 31 33 34 35 35 36 36 36 36 35 35 37 39 40 41 42 42 42 41 40 39 38 37 37 36 35 34 33 31 30 28 27 26 24 23 22 22 21 21 20 20 19 19 19 19 19 19
40 40 40 39 39 38 37 37 37 36 36 36 36 35 34 34 34 35 35 35 34 33 32 31 31 30 28 27 26 25 24 25 26 27 28 28 26 19 8 4 4 4 5 3 4 6 6 3 4 9 14 15 17 20 24 26 28 29 31 32 33 33 33 34 34 34 34 36 37 37 38 40 41 41 41 40 39 38 38 37 37 36 35 33 32 30 29 27 26 24 24 23 22 22 21 21 20 20 20 20 20 20 20
40 40 40 40 40 40 39 38 37 37 36 36 36 35 35 35 35 34 34 34 34 33 33 32 31 32 31 29 27 27 26 25 25 26 27 29 30 29 24 13 6 2 2 3 4 5 3 3 4 5 8 10 12 16 20 21 23 25 27 28 30 31 32 32 33 33 34 34 35 35 36 37 38 39 40 40 39 39 38 38 37 36 35 34 32 31 29 28 26 25 24 24 23 22 22 21 21 21 20 20 20 20 20
40 40 41 41 41 41 40 39 38 38 37 36 36 36 37 36 35 34 33 33 33 34 34 33 32 33 34 32 29 27 26 24 24 26 26 28 30 31 31 28 19 11 8 5 3 4 5 8 6 4 8 10 11 13 15 17 18 21 23 25 27 28 30 31 32 32 33 33 34 34 35 35 36 37 38 39 39 39 38 38 38 37 36 35 33 31 30 28 27 26 25 24 24 23 22 22 21 21 21 21 21 21 21
40 40 41 41 41 41 40 40 39 38 37 37 37 36 37 36 35 34 34 34 34 34 34 33 33 33 33 33 31 28 26 25 24 24 25 26 29 31 32 33 32 31 28 19 15 13 10 7 5 5 6 10 14 17 16 17 18 20 22 23 24 25 28 30 31 32 32 33 33 33 33 34 34 35 36 37 38 39 39 39 38 38 37 35 34 32 31 29 27 26 25 25 24 24 23 23 22 22 22 22 21 21 21
39 39 40 40 40 40 40 40 40 39 38 37 36 36 36 36 36 36 34 34 34 34 33 33 34 33 32 31 30 28 28 28 27 25 23 23 26 29 31 32 33 33 33 33 31 26 18 8 5 5 5 8 13 17 17 17 18 19 20 21 22 23 25 27 29 30 31 32 32 33 33 32 33 33 34 35 37 38 39 39 39 38 37 36 34 33 31 30 28 27 26 25 25 24 24 23 23 23 22 22 22 21 21
37 37 38 38 39 39 40 40 40 39 39 38 36 36 36 37 37 36 34 34 34 33 33 34 34 34 32 31 30 29 29 29 29 27 23 20 21 24 27 29 31 32 32 32 32 31 28 21 14 8 5 6 8 11 14 17 18 18 19 20 21 21 23 25 27 28 29 31 32 32 33 32 32 32 33 34 35 37 38 39 39 39 38 37 35 33 32 30 29 28 27 26 26 25 25 24 24 23 23 22 22 22 22
35 36 36 37 38 38 39 39 39 39 39 38 37 37 37 37 37 36 35 34 34 33 33 33 34 33 32 31 32 32 30 29 28 27 25 22 21 22 23 25 27 28 29 29 29 29 28 28 27 23 15 8 7 8 10 13 16 18 20 20 20 21 23 25 26 27 28 29 30 31 32 33 32 32 32 33 34 35 37 38 39 39 38 37 36 34 32 31 29 28 27 27 27 26 26 25 25 24 24 23 23 23 22
Wind_Direction
158 156 154 152 150 149 147 145 144 142 141 139 136 132 128 125 122 119 117 114 110 107 104 102 101 99 98 97 96 96 97 99 101 102 102 101 95 87 76 67 69 75 78 78 79 82 85 88 91 95 97 98 97 95 91 89 87 84 80 76 70 65 60 56 55 57 58 59 59 58 57 56 55 55 55 55 55 54 53 53 52 52 52 51 50 50 50 49 49 49 48 48 47 46 45 44 43 42 41 40 39 38 38
160 159 158 156 155 153 152 150 148 147 146 144 142 140 136 132 128 125 122 120 117 113 110 107 105 103 101 100 99 98 100 101 104 105 106 105 101 92 81 66 65 71 77 78 79 82 85 90 94 98 101 101 99 96 92 89 86 83 79 74 69 63 57 53 53 56 57 57 57 58 57 56 55 55 54 54 54 54 53 53 53 53 52 51 50 50 49 49 49 48 47 47 46 46 45 44 43 41 40 40 39 38 37
164 162 162 160 159 157 155 154 152 151 149 148 147 145 143 140 136 132 129 126 123 119 116 113 110 108 105 103 102 102 103 104 106 109 110 109 105 98 85 65 61 66 73 75 76 79 83 88 94 100 105 106 106 103 97 93 88 83 79 74 68 62 57 53 53 54 54 55 56 56 56 56 55 54 54 54 54 54 53 52 52 52 52 51 50 49 49 49 48 47 46 46 46 45 44 43 42 41 40 39 38 38 36
168 166 166 164 163 161 159 158 156 154 153 152 151 150 147 145 143 140 136 133 129 125 122 118 116 113 111 109 109 108 108 109 111 113 114 112 109 102 86 62 56 61 67 70 71 73 76 82 90 99 107 111 113 111 106 100 93 87 81 75 67 60 55 53 53 53 54 54 54 54 55 55 55 54 54 53 53 53 52 52 52 52 51 51 50 49 48 48 47 46 45 45 44 44 43 43 41 40 40 39 38 37 36
171 171 169 168 167 165 164 162 161 159 158 156 155 153 152 150 149 147 144 140 137 134 130 127 126 124 121 118 116 113 112 113 114 116 117 116 113 106 86 51 48 55 62 64 65 65 67 73 82 93 104 112 117 117 113 108 100 93 86 79 70 60 55 54 54 53 54 54 54 53 52 53 53 54 54 53 53 52 52 51 50 51 50 50 49 48 47 47 46 46 45 44 43 42 42 41 41 40 39 38 37 36 35
175 174 173 172 171 169 168 166 165 164 163 162 161 159 156 155 155 155 154 150 148 145 142 139 137 134 130 125 122 119 116 116 117 119 120 120 118 112 89 40 34 43 55 58 58 57 58 62 71 82 96 109 117 121 119 115 108 98 90 81 70 61 57 56 55 54 54 54 54 53 52 51 51 52 53 53 52 52 51 50 50 49 49 48 48 47 46 46 45 45 44 43 42 41 40 40 39 38 38 37 36 36 35
179 179 177 176 175 174 173 171 170 169 168 167 166 164 163 162 163 164 163 161 159 156 154 151 147 142 138 133 129 125 123 123 123 125 126 126 125 122 107 37 18 25 41 49 51 49 49 52 58 69 83 99 112 120 122 120 113 103 92 84 70 56 56 56 56 55 54 54 54 53 52 51 50 50 51 52 52 50 49 48 48 48 47 47 46 46 45 44 44 43 42 42 41 40 39 39 38 37 36 36 35 35 33
183 183 182 181 180 179 178 177 175 174 173 172 171 170 170 170 172 172 171 170 168 166 164 161 157 152 147 141 137 134 132 132 132 132 133 133 132 133 130 26 1 9 25 37 42 41 40 41 45 53 66 84 102 115 120 120 113 103 94 86 76 63 55 55 58 57 55 54 54 54 53 51 50 49 50 51 51 50 48 46 46 46 46 45 44 43 43 42 42 41 41 40 39 39 38 37 36 35 34 34 33 33 32
187 187 186 185 185 184 183 182 180 179 179 178 177 177 177 177 176 177 175 177 177 175 174 172 168 163 158 152 148 145 144 143 141 140 141 141 144 148 157 338 347 357 10 23 30 32 30 30 31 36 45 64 86 105 114 116 110 101 91 83 74 64 53 55 57 58 57 55 54 53 53 52 51 50 50 50 50 49 47 44 43 44 43 44 43 42 41 40 39 39 38 38 37 37 36 36 35 34 33 32 31 31 30
190 190 190 189 189 188 187 186 185 184 184 184 183 183 184 182 183 183 184 184 184 184 184 182 179 175 169 164 161 159 157 155 152 151 151 153 160 173 206 316 339 350 359 9 17 21 20 19 18 19 23 38 59 83 104 112 109 100 90 77 68 58 53 54 56 57 57 56 55 53 53 52 51 50 50 50 49 48 46 44 42 41 41 41 41 40 39 38 37 37 36 35 35 34 34 33 33 32 31 31 30 29 29
194 194 193 193 192 191 191 190 189 189 189 189 188 188 188 188 189 191 191 192 192 192 193 194 192 187 181 176 174 172 171 168 165 163 163 167 180 207 251 303 329 342 350 358 5 9 10 7 6 4 7 12 21 36 67 96 105 100 90 75 67 59 54 51 52 54 55 55 54 54 52 52 51 50 50 49 48 47 45 44 41 40 39 39 39 39 38 35 35 34 33 32 32 32 31 31 30 30 29 28 28 27 26
197 197 197 196 196 195 194 194 193 193 193 192 192 193 192 193 194 195 194 197 199 200 203 207 208 204 194 188 185 186 184 182 178 175 175 182 199 231 270 301 323 335 341 348 354 358 358 356 353 352 353 354 354 356 4 30 71 89 83 76 71 60 52 47 47 49 52 53 54 54 52 50 50 48 47 47 47 46 44 43 40 39 38 37 37 37 36 34 32 31 31 30 29 29 28 28 28 27 27 26 25 25 24
200 200 200 199 199 198 198 197 197 197 197 196 196 196 196 197 198 200 201 203 205 207 212 219 223 220 210 201 198 197 197 195 191 189 189 195 215 245 276 301 319 330 335 340 345 347 347 345 343 341 342 342 341 338 335 335 338 40 67 75 74 64 54 46 43 43 45 49 50 50 49 49 47 47 45 44 44 43 42 40 39 37 35 35 34 34 33 31 30 29 29 28 27 26 25 25 25 25 24 23 23 22 22
203 203 202 202 202 202 201 201 201 201 200 200 200 200 200 201 202 203 205 209 211 213 215 225 232 232 225 216 210 210 211 210 206 202 201 208 226 251 277 297 314 325 330 333 336 337 337 336 334 333 332 331 330 327 322 318 312 340 60 85 84 70 60 48 39 35 37 39 41 44 44 43 43 43 42 40 39 38 37 37 36 34 33 32 31 31 30 28 27 26 26 25 24 23 23 23 22 22 21 21 20 20 19
205 206 205 205 205 205 204 204 204 204 204 203 203 203 204 204 205 207 209 213 216 217 218 228 236 238 236 228 223 222 224 224 221 217 214 220 234 253 275 292 307 319 324 326 327 328 328 327 325 324 323 323 321 318 314 311 307 309 49 121 106 70 53 45 36 29 28 28 32 33 35 33 34 36 35 35 34 32 32 31 30 29 28 27 27 26 26 25 23 23 22 22 21 20 20 20 20 19 19 18 18 17 17
208 208 208 208 208 208 207 207 207 207 207 207 206 207 207 207 209 210 213 216 219 222 224 230 237 242 242 239 234 230 229 231 229 226 224 229 241 257 273 287 302 313 316 317 318 320 320 320 318 316 315 315 314 312 310 307 304 300 296 161 133 86 39 36 32 23 15 13 14 17 21 20 20 22 23 24 24 25 24 23 22 21 20 21 21 21 21 20 19 18 18 17 17 16 16 16 17 16 16 15 15 14 14
210 211 211 211 211 212 211 210 209 209 210 210 210 210 210 211 211 213 216 219 222 225 227 232 238 243 246 246 241 237 236 237 237 234 231 234 245 259 272 284 297 308 308 309 310 311 312 312 311 309 309 308 307 306 304 302 299 295 286 223 170 141 349 348 353 353 346 348 352 356 0 2 3 6 9 10 10 12 12 12 12 11 12 12 13 13 13 13 13 12 12 12 12 11 11 12 12 12 12 12 12 12 11
213 214 213 213 214 216 215 213 212 212 213 213 214 215 215 214 214 216 218 221 224 227 229 233 238 244 250 250 247 246 247 248 250 249 247 245 247 257 269 284 296 302 300 301 302 304 305 305 304 304 303 302 301 301 300 298 295 292 284 255 219 212 272 294 308 313 312 316 319 327 337 339 341 345 348 352 353 355 357 358 358 358 358 0 1 2 4 5 5 5 5 5 6 5 6 6 7 7 7 8 9 8 8
215 216 216 216 217 219 219 217 216 215 216 216 218 220 220 220 219 220 221 223 226 229 232 235 242 249 253 246 244 249 254 255 257 259 260 260 259 262 271 285 293 294 293 294 296 297 299 299 299 299 298 298 298 297 296 295 292 289 283 267 243 232 254 271 284 294 296 296 296 299 307 316 319 322 325 330 333 337 340 340 342 342 344 345 347 348 351 354 355 356 357 358 358 357 358 359 359 0 1 3 3 4 4
216 217 218 219 221 223 223 222 220 219 219 220 222 223 224 224 225 225 225 226 229 232 235 239 242 246 249 240 241 248 254 257 259 261 264 265 267 270 277 283 286 287 287 289 290 291 292 293 294 295 295 294 294 294 294 292 290 287 284 275 256 241 244 253 266 278 286 287 286 284 288 296 302 305 308 310 313 317 321 324 325 327 328 329 331 334 336 339 342 345 347 348 349 348 349 350 351 351 352 355 357 359 0
218 218 218 218 221 223 225 224 223 222 222 222 224 225 225 226 226 227 227 226 228 229 231 237 239 240 243 243 245 249 254 256 259 262 265 267 269 272 276 279 280 281 282 284 285 287 288 289 290 290 291 292 292 292 291 291 289 287 284 280 268 252 243 243 252 266 277 281 282 280 280 285 288 292 294 295 297 301 304 307 309 311 313 314 316 319 322 325 328 331 335 337 338 338 339 340 342 342 343 346 350 352 354
221 221 220 218 219 221 222 224 224 223 223 223 225 227 229 229 228 227 226 229 230 229 227 232 238 242 245 249 251 253 256 258 260 263 266 268 269 271 273 274 276 277 279 280 282 283 284 286 287 288 289 289 289 289 289 289 288 286 284 282 275 263 250 243 247 261 271 276 277 277 276 278 279 281 284 284 286 288 291 292 295 297 300 302 304 306 310 313 314 318 323 326 327 327 329 331 332 333 333 337 342 344 347
225 225 224 223 222 222 223 224 225 225 225 224 226 230 234 236 235 234 234 236 237 237 236 237 242 247 252 255 257 259 261 262 263 263 265 267 268 270 271 272 273 274 276 277 278 280 281 283 284 285 286 286 287 287 287 287 286 285 283 281 278 271 260 248 249 259 267 270 271 272 273 273 273 274 275 277 278 278 280 282 284 287 289 292 294 297 300 303 305 308 310 314 316 318 319 321 323 324 325 328 332 336 338
229 229 229 229 228 227 227 228 228 229 228 227 227 231 236 240 241 242 243 245 246 246 246 247 249 253 258 261 262 264 266 266 266 265 266 266 267 268 269 270 271 272 273 275 276 277 279 280 282 283 284 284 284 284 285 285 284 284 282 280 278 274 267 254 252 259 263 265 266 268 269 270 270 271 272 272 272 273 275 275 277 279 282 284 286 289 291 293 295 298 301 305 308 309 310 313 315 317 317 320 324 327 330
233 234 234 234 234 233 233 233 233 233 232 231 232 234 237 241 244 246 248 250 251 253 253 254 256 259 261 264 266 267 268 268 268 268 267 267 266 266 267 268 269 270 271 273 274 275 277 278 279 281 281 282 282 282 283 283 283 283 282 279 277 274 271 261 255 256 259 262 263 264 265 267 268 268 269 269 270 270 271 272 272 274 276 278 280 283 285 286 288 290 294 297 300 302 304 306 308 310 311 313 317 320 323
237 237 238 239 238 238 238 238 238 237 236 237 237 238 239 243 246 249 251 252 254 256 258 259 260 261 263 265 267 268 269 270 270 269 269 268 267 267 267 267 268 269 270 271 272 273 275 276 277 278 279 279 280 280 281 281 282 282 281 279 277 274 272 266 260 255 256 259 260 262 263 266 267 267 267 268 269 269 270 269 270 270 272 274 276 278 280 282 283 285 287 290 293 295 298 300 302 304 306 309 312 314 316
239 240 241 241 242 242 242 242 242 241 241 241 242 242 243 245 248 250 252 254 256 257 259 261 262 263 264 266 267 269 270 271 271 271 270 269 269 268 267 267 267 268 269 270 271 272 273 274 275 276 276 277 278 278 279 280 280 281 281 280 278 275 272 270 265 259 256 258 260 261 261 264 266 266 266 266 267 268 269 269 269 268 269 271 272 275 277 279 280 281 283 285 288 290 293 296 299 301 302 306 308 310 311
240 242 243 243 244 244 244 245 245 245 245 245 245 246 246 247 249 251 253 255 257 258 260 262 263 264 266 267 268 269 270 271 271 271 271 271 270 269 269 268 267 268 269 269 270 271 271 272 272 273 274 274 275 276 277 278 278 279 280 280 278 276 273 270 268 264 260 259 260 261 261 263 265 265 265 265 265 266 268 268 268 267 268 269 270 272 274 275 277 278 280 282 284 286 288 292 295 298 300 302 305 307 307
242 243 244 245 245 246 246 247 248 248 248 248 248 248 249 249 250 252 254 256 257 259 261 263 264 265 266 267 268 269 270 271 271 272 271 271 271 271 270 269 269 268 269 269 270 271 271 271 271 271 271 272 273 274 275 275 276 277 277 278 277 276 273 270 269 267 263 261 260 260 261 262 264 264 264 264 264 264 265 266 267 266 266 267 268 269 271 273 274 276 277 279 281 283 284 287 291 294 297 299 301 302 303
243 244 245 246 247 247 248 249 250 250 251 251 250 250 251 252 252 253 255 257 258 260 261 263 264 265 266 267 268 269 271 271 272 272 272 271 271 271 271 270 270 269 269 270 271 271 271 271 271 271 271 271 271 272 273 274 274 275 275 275 275 274 272 270 268 267 265 263 261 260 260 263 264 263 264 263 263 263 264 264 265 264 264 265 266 267 269 270 272 274 276 278 280 281 282 284 286 290 293 295 297 298 299
244 245 246 247 248 249 250 251 252 252 252 252 252 253 253 254 254 255 256 257 259 260 261 263 264 265 267 268 268 269 271 271 272 272 272 272 271 271 270 270 270 269 269 270 270 271 271 271 271 271 271 271 271 271 272 273 274 274 274 273 273 272 271 269 267 266 265 263 261 260 260 263 263 263 263 263 262 262 262 263 264 264 264 264 264 265 266 268 269 271 274 276 278 279 280 282 283 285 289 293 294 295 295
246 247 247 248 249 251 252 253 253 254 254 253 253 254 255 255 255 255 257 258 259 261 262 264 265 267 268 269 270 270 271 271 271 272 272 272 272 271 270 270 269 269 268 269 269 269 269 270 270 271 271 271 271 272 272 272 273 273 273 272 272 271 270 268 266 265 264 262 260 259 259 261 262 262 262 262 262 262 262 261 262 263 263 263 263 264 265 266 267 269 271 274 275 277 278 280 281 283 286 288 291 292 292
247 247 248 249 250 252 253 254 255 255 255 255 254 254 255 255 255 256 257 258 259 261 263 264 266 267 269 269 270 270 270 270 270 271 271 271 271 270 270 269 268 268 268 267 267 267 268 268 269 270 271 271 271 272 272 272 272 272 272 272 271 271 270 268 266 263 262 261 260 259 258 258 259 261 260 261 261 262 261 261 261 261 261 262 262 263 263 264 265 267 269 271 273 275 277 278 279 281 283 284 286 287 288
247 248 249 250 252 253 254 255 257 258 257 256 256 255 255 255 255 256 257 258 259 261 262 264 265 267 268 269 270 269 268 267 268 268 269 270 270 270 269 269 268 267 267 266 266 266 266 266 267 268 269 270 270 271 271 271 271 271 271 271 271 270 269 268 266 264 262 261 259 258 257 256 257 258 259 260 260 261 261 260 260 260 261 261 262 262 262 263 265 266 268 269 271 273 275 276 277 279 280 281 282 283 285
248 249 250 251 252 253 255 256 258 259 259 258 257 256 256 256 256 256 256 257 258 260 261 263 264 266 267 268 268 268 267 266 265 266 266 267 268 269 268 268 267 267 266 265 265 265 265 265 265 266 267 268 269 269 270 270 270 270 270 270 269 269 268 267 266 264 261 260 259 258 256 255 255 256 258 258 259 259 259 260 260 260 260 260 261 261 262 263 264 265 267 268 270 272 273 274 276 277 277 278 279 280 281
248 250 251 252 253 254 256 258 259 260 260 260 259 258 257 257 256 256 256 256 257 259 260 262 264 265 266 267 267 266 266 265 264 264 264 265 267 268 268 267 267 267 266 265 265 265 265 264 264 265 266 267 268 268 268 268 268 268 268 268 267 267 266 266 264 263 262 260 258 257 256 255 254 254 255 256 257 257 258 259 259 259 259 259 260 261 262 262 263 264 266 267 269 270 272 272 274 275 276 276 277 277 278
249 250 252 253 254 255 257 258 260 261 261 261 260 259 258 257 257 256 256 257 257 259 260 262 263 264 265 266 266 266 265 264 263 263 263 264 266 267 267 267 267 267 266 265 265 265 265 264 264 265 265 266 267 267 267 268 267 267 266 266 265 265 264 264 264 263 262 261 259 257 256 255 253 252 252 253 254 255 256 257 258 258 258 259 259 260 261 261 263 264 265 267 268 269 270 271 272 273 274 274 275 275 276
249 251 252 253 255 256 257 259 260 261 262 262 261 260 259 259 258 258 258 258 258 260 261 262 263 264 265 265 265 265 265 264 263 263 263 265 265 266 266 267 267 267 266 267 267 266 266 265 265 265 266 266 267 267 267 267 267 266 265 265 264 263 263 263 262 262 262 261 260 258 257 256 254 252 251 251 252 252 253 255 256 257 257 258 259 260 260 261 262 264 265 266 267 268 269 270 270 271 272 273 274 274 275
250 251 253 254 255 257 258 260 261 261 262 262 261 261 261 260 260 260 259 259 260 261 262 263 264 265 265 265 265 265 264 263 262 263 264 264 265 265 266 267 267 267 267 268 268 267 266 266 266 266 266 266 267 267 268 267 267 266 265 264 263 262 262 261 261 261 261 260 260 259 258 256 255 254 252 251 250 250 251 252 253 255 256 257 258 259 260 261 262 263 264 265 266 268 269 269 269 270 270 271 272 273 273
251 251 252 254 255 257 259 260 260 260 261 261 261 261 261 260 260 260 260 261 262 263 263 264 265 266 266 266 265 265 264 263 262 262 263 264 265 266 267 267 267 268 268 268 268 267 267 267 267 267 267 267 268 268 268 268 267 266 265 264 263 262 262 261 261 260 260 260 259 259 258 257 256 255 253 251 249 249 249 250 251 252 254 255 257 258 259 260 261 262 263 265 267 267 268 268 268 268 269 269 270 271 272
250 251 252 254 255 257 258 259 259 260 260 260 260 260 260 259 259 260 261 261 262 263 264 264 264 264 265 266 266 265 264 263 262 261 262 263 264 265 267 267 267 267 268 268 268 268 268 268 268 268 268 268 268 269 268 268 268 267 266 265 263 262 262 261 260 260 259 259 259 259 258 258 257 255 254 252 249 248 247 248 249 250 251 253 255 256 258 259 260 262 263 264 266 267 266 267 267 267 267 268 269 270 271
250 251 252 253 255 256 257 258 259 259 258 259 259 258 258 258 259 259 260 261 262 263 263 264 263 263 264 266 265 265 265 264 263 262 262 263 264 265 266 266 266 267 267 267 267 268 268 268 269 269 269 269 269 268 268 268 268 268 266 265 264 263 262 261 260 259 259 259 259 259 258 258 257 255 254 251 249 247 246 246 247 248 249 250 252 254 256 257 259 261 262 263 265 266 265 266 266 266 266 266 267 269 270
250 251 252 253 255 256 256 257 257 258 257 257 257 257 257 257 258 259 259 259 260 261 262 262 263 263 263 264 264 264 264 263 263 263 262 263 264 265 265 265 266 266 266 267 267 267 268 269 269 269 270 269 268 268 268 268 268 268 267 266 265 264 262 261 260 259 259 259 259 259 258 258 256 255 253 251 248 246 245 244 244 245 247 248 250 252 253 256 258 260 261 263 264 264 265 265 266 266 266 266 267 268 269
250 251 252 253 254 255 255 256 256 256 256 256 256 256 256 256 257 257 258 258 258 259 260 261 262 262 262 262 262 262 262 262 263 264 264 264 265 266 266 266 266 266 266 266 266 267 268 268 269 269 269 269 268 268 268 268 268 268 267 266 265 264 263 261 260 259 259 258 258 258 258 258 256 255 252 250 247 245 243 242 242 243 244 246 248 250 252 254 256 258 260 262 263 264 265 265 265 265 265 265 266 267 268
250 251 252 253 254 254 254 255 255 255 254 255 255 255 255 255 255 256 257 257 257 257 258 259 260 260 261 261 261 262 262 262 264 265 266 267 267 267 267 267 267 267 267 266 266 267 267 268 268 269 268 268 268 268 268 268 269 269 268 266 265 263 263 262 261 259 258 258 257 257 257 257 256 255 253 250 246 244 242 241 240 240 241 243 245 247 250 251 254 256 258 260 262 263 264 264 265 265 265 265 265 266 267
250 250 251 252 253 253 253 254 254 253 253 253 253 254 254 254 254 254 254 255 255 255 256 257 258 259 260 261 261 262 262 263 264 265 266 267 268 268 268 268 268 267 267 267 267 267 267 268 268 268 267 267 267 268 268 268 269 269 269 267 265 263 262 261 260 259 258 257 257 256 256 256 256 255 253 250 247 244 242 241 240 239 240 241 242 244 246 248 250 253 256 259 261 262 263 264 265 264 264 264 264 265 266
251 251 251 252 253 253 253 253 252 252 252 252 252 252 252 252 252 252 252 253 253 254 255 256 257 258 258 259 260 260 261 261 262 262 264 265 266 267 268 269 269 268 268 267 267 267 267 267 267 267 267 267 267 267 268 268 268 268 268 268 266 265 263 262 261 259 259 257 256 256 255 255 255 255 253 251 248 245 242 241 240 240 240 241 242 242 243 244 246 248 252 255 258 261 262 263 264 264 263 264 264 265 266
251 251 251 252 253 253 253 253 252 252 251 251 250 250 251 252 252 252 252 252 252 253 255 255 256 257 258 258 258 258 259 259 259 259 261 264 266 267 268 270 271 270 269 268 268 268 268 268 268 268 268 268 267 267 267 267 267 267 266 267 266 265 264 263 261 260 259 258 257 256 255 254 254 254 253 251 249 246 243 241 240 240 241 242 242 242 242 241 242 244 247 250 254 258 260 262 263 263 263 264 265 265 266
251 251 252 252 252 253 253 253 252 252 251 250 250 251 253 253 253 254 254 254 254 254 256 255 254 254 256 257 257 257 257 257 257 258 259 263 269 272 272 271 272 273 273 272 271 271 271 270 269 268 268 268 267 267 267 266 266 265 265 265 264 264 264 264 263 262 260 259 258 256 255 254 254 253 253 252 250 247 244 241 239 239 240 241 242 242 241 240 240 241 243 246 249 253 257 259 261 262 264 264 265 265 266
251 251 251 252 252 252 252 252 252 251 251 251 252 253 254 254 254 254 254 254 253 253 254 254 253 252 252 254 256 257 257 256 256 256 255 256 261 271 277 276 275 275 276 276 276 275 273 270 268 267 266 266 266 266 266 265 264 263 263 262 261 262 263 263 263 263 261 260 258 257 255 254 253 253 252 252 250 248 245 241 239 238 239 240 241 241 240 239 238 238 239 240 243 246 250 255 259 262 264 265 266 266 266
252 251 251 251 251 251 252 252 252 251 251 252 253 253 253 253 253 252 252 251 251 250 248 251 252 252 250 251 254 257 257 255 252 247 245 249 251 253 264 280 285 285 283 281 278 274 270 267 265 264 265 265 264 264 264 263 261 260 260 259 259 259 260 260 261 261 261 260 259 257 255 254 253 252 252 251 250 248 245 242 239 238 238 239 240 240 240 239 239 237 237 237 237 239 242 247 252 258 262 264 265 266 266
253 253 252 252 252 252 253 252 252 251 251 251 252 252 252 251 251 251 250 250 249 248 246 246 249 252 251 250 253 256 255 253 248 240 235 245 249 249 252 271 286 292 292 294 286 275 269 263 263 264 263 263 262 261 260 259 257 257 257 257 257 257 257 258 258 258 259 259 259 258 256 254 253 252 251 250 249 248 245 243 240 238 238 238 239 240 240 239 239 239 238 237 237 238 239 242 248 254 259 262 265 265 265
254 254 253 253 252 253 253 252 252 252 251 250 249 250 251 250 250 249 249 248 248 247 246 244 245 248 251 251 251 252 252 250 247 243 237 239 244 251 255 255 260 270 305 320 308 287 271 258 255 257 259 260 259 258 257 254 253 253 255 254 255 256 257 256 256 255 256 257 258 258 257 256 254 252 251 250 248 247 245 243 240 238 238 238 239 239 239 239 239 240 240 240 240 240 241 243 247 252 257 261 263 265 265
254 254 254 253 253 253 252 252 252 252 251 250 249 249 250 250 250 249 248 247 245 245 244 244 242 242 247 250 251 250 250 248 246 243 239 237 236 240 255 226 223 250 265 270 292 293 281 246 240 249 257 258 258 257 255 252 251 252 252 252 253 255 256 255 254 254 253 255 256 258 258 257 255 253 251 250 248 246 244 242 240 239 238 239 239 240 240 240 240 240 241 241 242 242 243 244 247 251 255 259 262 264 265
255 255 255 254 254 253 252 252 252 252 251 251 250 249 249 249 249 249 248 247 245 244 243 242 240 238 240 246 250 250 249 249 246 242 238 237 232 226 229 240 259 267 270 232 236 261 282 285 280 274 267 258 253 251 251 249 250 251 251 250 251 252 254 254 254 253 252 254 255 256 257 257 257 255 253 251 248 246 244 242 240 239 238 239 240 241 241 241 241 241 242 243 243 244 245 246 249 251 254 257 260 263 265
255 255 255 254 254 253 253 253 252 252 251 250 249 248 249 249 250 250 249 248 247 245 242 241 240 238 237 241 246 251 252 251 248 243 239 237 233 229 229 232 240 259 283 251 241 244 265 332 342 311 279 261 249 246 249 252 252 251 251 251 252 252 252 253 253 253 253 254 255 255 255 256 256 256 255 252 249 246 243 241 240 238 238 239 240 241 241 241 242 242 244 245 245 246 247 248 249 251 253 256 259 262 264
256 255 255 255 255 254 254 253 252 251 251 250 249 249 250 250 250 250 249 248 247 245 242 241 240 240 239 239 243 248 252 251 248 244 241 239 236 233 230 230 230 229 232 245 268 283 300 321 326 308 290 284 269 260 266 266 262 257 254 254 254 255 254 253 253 253 254 255 255 255 255 255 255 255 255 253 250 246 243 241 239 238 238 239 240 241 242 242 243 244 245 247 248 249 249 250 252 253 254 255 258 261 263
256 256 256 256 256 255 254 253 252 251 251 250 250 250 250 250 250 249 248 247 246 246 244 241 240 240 241 240 241 244 248 249 247 245 244 242 240 236 234 233 235 238 240 247 258 271 292 308 290 273 300 300 283 272 269 268 263 259 256 256 257 257 256 254 254 254 255 255 255 256 256 255 254 254 254 253 251 247 244 241 239 238 238 239 240 241 242 243 243 244 246 248 250 251 252 253 254 255 256 256 258 260 262
258 257 257 257 256 255 254 254 253 252 251 250 250 249 249 249 249 249 248 248 248 247 245 242 240 240 240 239 238 239 243 246 248 247 245 244 241 238 236 236 237 240 243 247 252 257 264 271 272 273 295 295 289 281 270 261 257 257 258 260 261 259 257 255 255 255 256 257 257 256 255 255 254 253 252 252 251 249 245 241 239 238 238 238 239 241 242 242 243 245 246 248 250 252 254 255 256 257 258 258 259 260 262
259 258 257 257 256 255 255 254 253 252 251 250 249 248 248 249 250 250 250 250 249 247 245 243 242 241 239 238 235 235 239 244 246 245 242 242 243 241 237 236 237 239 242 245 248 250 252 252 255 263 270 276 288 292 284 270 265 265 267 267 265 262 259 257 257 257 257 258 258 257 256 255 255 253 252 251 251 250 247 243 240 238 237 238 239 240 241 242 243 245 246 248 250 252 254 256 257 259 259 259 260 260 261
260 259 258 257 257 256 255 254 252 252 251 250 248 248 248 249 251 251 249 249 248 247 245 244 243 241 239 237 235 235 237 242 245 244 240 239 244 246 240 235 235 237 240 243 245 247 248 249 250 251 253 261 277 284 285 281 276 273 270 269 268 265 262 259 258 257 258 259 259 258 257 256 255 253 252 251 251 250 249 246 242 239 238 238 239 240 241 242 243 245 246 247 249 251 253 255 257 258 259 259 259 260 261